When you browse on this site, cookies collect data to enhance your experience and personalize the content and advertising you see.
Visit our Privacy Policy to learn more. By continuing to use the site, you agree to this use of cookies and data.
  • Em Portugal
  • Lista de países
  • Para 7 dias
  • Temperatura da água
  • Mapa do tempo
  • Widgets de tempo
  • user-avatar
    Iniciar Sessão

    Previsão horária em Majadahonda

    Hoje, 20 Agosto, Terça-feira

    Tempo Temperatura Precipitação Vento Pressão Humidade
    00:00 +23°C° 0 mm 5 m/s 700 mmHg 55%
    01:00 +22°C° 0 mm 5 m/s 700 mmHg 58%
    02:00 +22°C° 0 mm 4 m/s 700 mmHg 60%
    03:00 +21°C° 0 mm 4 m/s 700 mmHg 62%
    04:00 +21°C° 0.1 mm 4 m/s 700 mmHg 66%
    05:00 +20°C° 0.1 mm 4 m/s 700 mmHg 69%
    06:00 +19°C° 0.1 mm 4 m/s 700 mmHg 73%
    07:00 +21°C° 0 mm 4 m/s 701 mmHg 67%
    08:00 +22°C° 0 mm 4 m/s 701 mmHg 61%
    09:00 +25°C° 0 mm 4 m/s 702 mmHg 55%
    10:00 +27°C° 0 mm 4 m/s 702 mmHg 48%
    11:00 +28°C° 0 mm 4 m/s 702 mmHg 42%
    12:00 +30°C° 0 mm 4 m/s 702 mmHg 35%
    13:00 +32°C° 0 mm 4 m/s 702 mmHg 32%
    14:00 +32°C° 0 mm 4 m/s 702 mmHg 30%
    15:00 +33°C° 0 mm 4 m/s 702 mmHg 27%
    16:00 +32°C° 0 mm 5 m/s 702 mmHg 29%
    17:00 +32°C° 0 mm 5 m/s 701 mmHg 32%
    18:00 +30°C° 0 mm 6 m/s 701 mmHg 34%
    19:00 +28°C° 0.1 mm 6 m/s 702 mmHg 40%
    20:00 +26°C° 0.1 mm 5 m/s 702 mmHg 47%
    21:00 +25°C° 0.1 mm 5 m/s 702 mmHg 54%
    22:00 +23°C° 0 mm 5 m/s 702 mmHg 56%
    23:00 +22°C° 0 mm 4 m/s 702 mmHg 58%

    Amanhã, 21 Agosto, Quarta-feira

    Tempo Temperatura Precipitação Vento Pressão Humidade
    00:00 +22°C° 0 mm 3 m/s 702 mmHg 59%
    01:00 +21°C° 0 mm 3 m/s 702 mmHg 61%
    02:00 +21°C° 0 mm 3 m/s 702 mmHg 63%
    03:00 +20°C° 0 mm 3 m/s 702 mmHg 65%
    04:00 +20°C° 0 mm 3 m/s 702 mmHg 67%
    05:00 +20°C° 0 mm 3 m/s 702 mmHg 69%
    06:00 +20°C° 0 mm 3 m/s 702 mmHg 71%
    07:00 +21°C° 0 mm 3 m/s 702 mmHg 69%
    08:00 +22°C° 0 mm 3 m/s 702 mmHg 67%
    09:00 +22°C° 0 mm 3 m/s 702 mmHg 65%
    10:00 +25°C° 0.1 mm 3 m/s 702 mmHg 57%
    11:00 +27°C° 0.1 mm 3 m/s 702 mmHg 50%
    12:00 +29°C° 0.1 mm 2 m/s 702 mmHg 42%
    13:00 +29°C° 0 mm 3 m/s 701 mmHg 38%
    14:00 +30°C° 0 mm 3 m/s 701 mmHg 34%
    15:00 +31°C° 0 mm 3 m/s 701 mmHg 31%
    16:00 +30°C° 0 mm 4 m/s 701 mmHg 30%
    17:00 +29°C° 0 mm 4 m/s 701 mmHg 29%
    18:00 +29°C° 0 mm 4 m/s 701 mmHg 29%
    19:00 +27°C° 0 mm 4 m/s 701 mmHg 33%
    20:00 +26°C° 0 mm 4 m/s 702 mmHg 37%
    21:00 +25°C° 0 mm 4 m/s 702 mmHg 41%
    22:00 +24°C° 0 mm 3 m/s 702 mmHg 48%
    23:00 +22°C° 0 mm 3 m/s 702 mmHg 54%

    Depois de amanhã, 22 Agosto, Quinta-feira

    Tempo Temperatura Precipitação Vento Pressão Humidade
    00:00 +22°C° 0 mm 3 m/s 702 mmHg 60%
    01:00 +21°C° 0 mm 3 m/s 702 mmHg 60%
    02:00 +21°C° 0 mm 2 m/s 702 mmHg 61%
    03:00 +21°C° 0 mm 2 m/s 702 mmHg 61%
    04:00 +21°C° 0 mm 2 m/s 702 mmHg 61%
    05:00 +20°C° 0 mm 2 m/s 702 mmHg 61%
    06:00 +20°C° 0 mm 2 m/s 702 mmHg 60%
    07:00 +23°C° 0 mm 2 m/s 703 mmHg 54%
    08:00 +25°C° 0 mm 2 m/s 703 mmHg 47%
    09:00 +27°C° 0 mm 2 m/s 703 mmHg 41%
    10:00 +28°C° 0 mm 2 m/s 703 mmHg 37%
    11:00 +30°C° 0 mm 2 m/s 703 mmHg 33%
    12:00 +31°C° 0 mm 2 m/s 703 mmHg 30%
    13:00 +32°C° 0 mm 2 m/s 702 mmHg 27%
    14:00 +32°C° 0 mm 2 m/s 702 mmHg 25%
    15:00 +34°C° 0 mm 2 m/s 702 mmHg 22%
    16:00 +34°C° 0 mm 2 m/s 702 mmHg 22%
    17:00 +32°C° 0 mm 2 m/s 701 mmHg 22%
    18:00 +32°C° 0 mm 1 m/s 701 mmHg 22%
    19:00 +31°C° 0 mm 1 m/s 702 mmHg 24%
    20:00 +30°C° 0 mm 1 m/s 702 mmHg 26%
    21:00 +28°C° 0 mm 2 m/s 702 mmHg 28%
    22:00 +27°C° 0 mm 2 m/s 702 mmHg 33%
    23:00 +26°C° 0 mm 2 m/s 702 mmHg 37%

    23 Agosto, Sexta-feira

    Tempo Temperatura Precipitação Vento Pressão Humidade
    00:00 +25°C° 0 mm 3 m/s 702 mmHg 41%
    01:00 +24°C° 0 mm 3 m/s 702 mmHg 45%
    02:00 +24°C° 0 mm 3 m/s 702 mmHg 48%
    03:00 +22°C° 0 mm 3 m/s 702 mmHg 52%
    04:00 +22°C° 0 mm 3 m/s 702 mmHg 53%
    05:00 +23°C° 0 mm 2 m/s 702 mmHg 55%
    06:00 +21°C° 0 mm 2 m/s 702 mmHg 56%
    07:00 +24°C° 0 mm 2 m/s 702 mmHg 49%
    08:00 +26°C° 0 mm 2 m/s 702 mmHg 43%
    09:00 +27°C° 0 mm 2 m/s 703 mmHg 36%
    10:00 +29°C° 0 mm 2 m/s 702 mmHg 32%
    11:00 +30°C° 0 mm 2 m/s 702 mmHg 29%
    12:00 +32°C° 0 mm 2 m/s 702 mmHg 25%
    13:00 +32°C° 0 mm 2 m/s 702 mmHg 23%
    14:00 +34°C° 0 mm 2 m/s 701 mmHg 21%
    15:00 +35°C° 0 mm 2 m/s 701 mmHg 19%
    16:00 +34°C° 0 mm 2 m/s 701 mmHg 19%
    17:00 +34°C° 0 mm 2 m/s 701 mmHg 19%
    18:00 +33°C° 0 mm 1 m/s 701 mmHg 19%
    19:00 +31°C° 0 mm 1 m/s 701 mmHg 21%
    20:00 +30°C° 0 mm 1 m/s 701 mmHg 23%
    21:00 +28°C° 0 mm 1 m/s 701 mmHg 25%
    22:00 +27°C° 0 mm 2 m/s 701 mmHg 28%
    23:00 +26°C° 0 mm 2 m/s 701 mmHg 31%

    24 Agosto, Sábado

    Tempo Temperatura Precipitação Vento Pressão Humidade
    00:00 +25°C° 0 mm 3 m/s 701 mmHg 34%
    01:00 +24°C° 0 mm 2 m/s 701 mmHg 36%
    02:00 +24°C° 0 mm 2 m/s 701 mmHg 39%
    03:00 +23°C° 0 mm 2 m/s 700 mmHg 41%
    04:00 +23°C° 0 mm 2 m/s 701 mmHg 42%
    05:00 +23°C° 0 mm 2 m/s 701 mmHg 44%
    06:00 +23°C° 0 mm 2 m/s 701 mmHg 45%
    07:00 +24°C° 0 mm 3 m/s 701 mmHg 40%
    08:00 +26°C° 0 mm 3 m/s 701 mmHg 35%
    09:00 +28°C° 0 mm 3 m/s 702 mmHg 30%
    10:00 +30°C° 0 mm 3 m/s 702 mmHg 27%
    11:00 +31°C° 0 mm 3 m/s 701 mmHg 24%
    12:00 +34°C° 0 mm 3 m/s 701 mmHg 21%
    13:00 +35°C° 0 mm 3 m/s 701 mmHg 19%
    14:00 +35°C° 0 mm 3 m/s 700 mmHg 18%
    15:00 +36°C° 0 mm 2 m/s 700 mmHg 17%
    16:00 +36°C° 0 mm 2 m/s 700 mmHg 17%
    17:00 +35°C° 0 mm 2 m/s 699 mmHg 17%
    18:00 +35°C° 0 mm 2 m/s 699 mmHg 18%
    19:00 +32°C° 0 mm 2 m/s 699 mmHg 20%
    20:00 +31°C° 0 mm 2 m/s 699 mmHg 22%
    21:00 +29°C° 0 mm 2 m/s 699 mmHg 24%
    22:00 +28°C° 0 mm 2 m/s 699 mmHg 28%
    23:00 +27°C° 0 mm 3 m/s 699 mmHg 31%

    25 Agosto, Domingo

    Tempo Temperatura Precipitação Vento Pressão Humidade
    00:00 +26°C° 0 mm 4 m/s 699 mmHg 35%
    01:00 +26°C° 0 mm 4 m/s 699 mmHg 37%
    02:00 +25°C° 0 mm 4 m/s 699 mmHg 40%
    03:00 +25°C° 0 mm 3 m/s 699 mmHg 43%
    04:00 +24°C° 0 mm 3 m/s 699 mmHg 44%
    05:00 +24°C° 0 mm 3 m/s 699 mmHg 45%
    06:00 +22°C° 0 mm 3 m/s 699 mmHg 45%
    07:00 +25°C° 0 mm 3 m/s 699 mmHg 42%
    08:00 +26°C° 0 mm 3 m/s 699 mmHg 38%
    09:00 +27°C° 0 mm 3 m/s 699 mmHg 34%
    10:00 +29°C° 0 mm 3 m/s 699 mmHg 31%
    11:00 +30°C° 0 mm 2 m/s 699 mmHg 27%
    12:00 +32°C° 0 mm 2 m/s 699 mmHg 24%
    13:00 +34°C° 0 mm 2 m/s 699 mmHg 22%
    14:00 +35°C° 0 mm 2 m/s 699 mmHg 20%
    15:00 +35°C° 0 mm 2 m/s 698 mmHg 18%
    16:00 +35°C° 0 mm 2 m/s 698 mmHg 19%
    17:00 +35°C° 0 mm 2 m/s 698 mmHg 19%
    18:00 +34°C° 0 mm 2 m/s 698 mmHg 20%
    19:00 +32°C° 0.3 mm 2 m/s 698 mmHg 24%
    20:00 +30°C° 0.3 mm 3 m/s 699 mmHg 28%
    21:00 +28°C° 0.3 mm 3 m/s 699 mmHg 32%
    22:00 +27°C° 0.1 mm 4 m/s 699 mmHg 36%
    23:00 +26°C° 0.1 mm 4 m/s 699 mmHg 39%
    Mostrar mais